Find Avion-Kaluga 650

NORAD ID: 57195 Int'l Des: 2023-091 Owner: MGU Country: RU operational
LEOCIRCULARRETROGRADESSO

現在のビュー

3D地球を読み込み中...

Avion-Kaluga 650について

説明を読み込み中...

次回通過

Passes for default location (London). Set your location on the main map for personalized predictions.

高度履歴

Loading altitude history...

軌道要素

1 57195U 23091AF 26151.18055354 .00009386 00000-0 43618-3 0 9999
2 57195 97.5099 210.8272 0010989 162.0411 198.1214 15.20153933161446
Epoch: May 31, 2026 • Age: 6 hours

現在のステータス

高度 531.1 km
速度 7.59 km/s
衛星直下点 -49.47°S, 174.47°E
打ち上げ日 Jun 27, 2023
運用期間 2.9 years
タイプ other

技術仕様

分類 Payload
質量 5.00 kg
乾燥質量 5.00 kg
総質量 5.00 kg
長さ 0.30 m
直径 0.10 m
スパン 0.30 m
形状 Box
製造者 DOSAAN
バスタイプ Cubesat 3U
フェーズステータス In Orbit
所有者/国 MGU/RU

Most Searched